Location: Mount Wilson Observatory
(34.2257°N, 118.0571°W)
Time: 03:19:47
(UTC-07:00)

ATLAS 3B CENTAUR R/B - Visible Passes

Search period start: 24 October 2014 00:00
Search period end: 02 November 2014 23:00
Orbit: 232 x 8350 km, 28.1° (Epoch: 24 October)

Date Brightness Start Highest point End Pass type
(mag) Time Alt. Az. Time Alt. Az. Time Alt. Az.
24 Oct 4.0 19:05:10 10° W 19:33:39 67° S 19:39:08 26° ESE visible
24 Oct 5.5 22:41:18 10° W 22:41:52 11° W 22:41:52 11° W visible
25 Oct 3.7 19:31:14 10° W 19:56:47 65° S 20:00:45 36° ESE visible
26 Oct 3.6 19:56:35 10° W 20:19:20 61° SSW 20:21:57 45° SE visible
27 Oct 3.6 20:21:11 10° W 20:41:17 55° SSW 20:42:43 50° S visible
28 Oct 3.8 20:45:04 10° W 21:02:37 47° SSW 21:03:03 47° SSW visible
29 Oct 4.2 21:08:18 10° W 21:22:59 39° SW 21:22:59 39° SW visible
30 Oct 5.0 17:45:10 10° W 18:28:16 73° S 18:39:25 10° ESE visible
30 Oct 4.6 21:30:57 10° W 21:42:29 30° SW 21:42:29 30° SW visible
31 Oct 4.9 18:08:47 10° W 18:49:00 71° S 18:59:12 11° ESE visible
31 Oct 5.0 21:53:09 10° W 22:01:34 23° WSW 22:01:34 23° WSW visible
01 Nov 4.7 18:31:52 10° W 19:09:08 68° SSW 19:17:55 16° ESE visible
01 Nov 5.4 22:15:08 10° W 22:20:14 16° WSW 22:20:14 16° WSW visible
02 Nov 4.6 17:54:18 10° W 18:28:41 64° SSW 18:36:14 20° ESE visible
02 Nov 5.7 21:37:46 10° WSW 21:38:30 11° WSW 21:38:30 11° WSW visible
